User: anonymous   Login
Location: Unspecified
(0.0000°N, 0.0000°E)
Time: 19:19:28
(UTC+02:00)
Language:

Cosmos 2263 Rocket - Orbit

View from above orbital plane
View from above orbital plane
View from above satellite
View from above satellite

Ground track
Ground track

The orbit data is extracted from the following two-line orbital elements,

1 22803U 93059B   17117.81435002 -.00000108 +00000-0 -29777-4 0  9998
2 22803 070.9919 355.5851 0015027 104.3190 255.9603 14.16770978220898
Epoch (UTC): 27 April 2017 19:32:39
Eccentricity: 0.0015027
inclination: 70.9919°
perigee height: 825 km
apogee height: 847 km
right ascension of ascending node: 355.5851°
argument of perigee: 104.3190°
revolutions per day: 14.16770978
mean anomaly at epoch: 255.9603°
orbit number at epoch: 22089

The dashed part of the orbit path shows where the satellite is in the earth's shadow,  

DLR